星链-5963 (STARLINK-5963 )

导读

STARLINK-5963是美国SpaceX公司星链星座的卫星,于2023年5月31日发射升空,属于星链第二代低轨互联网星座组网卫星。星链计划旨在打造全球覆盖的低轨卫星互联网,单星设计寿命5-7年,配备相控阵天线与霍尔推进器,具备自主轨道调整和避碰能力,可为全球提供高速低延迟宽带服务,截至2026年,该卫星仍在轨参与星座运行。

基本信息
目录编号:
56780
目录名称:
STARLINK-5963
国际标识:
2023-078P
轨道中心:
EARTH
卫星名称:
星链-5963
卫星全名:
星链-5963 (STARLINK-5963 )
卫星状态:
在轨 (已飞行1192 天)
发射日期:
2023-05-31 UTC
国别 :
美国 (US)
星等 :
--
轨道信息
数据来源 国际轨道数据 AOE轨道数据
星历时间 2026-09-03T18:57:53+0800
1天前
查看轨道信息
2026-09-03T22:00:00+0800
1天前
查看轨道信息
半长轴 6950.217km 6950.191km
偏心率 0.0003759 0.0003785
轨道倾角 69.998° 69.998°
近地点辐角 269.550° 272.575°
升交点赤经 256.038° 255.717°
平近点角 90.522° 49.502°
近地点 569.467km 569.423km
远地点 574.693km 574.685km
周期 96.107分钟 96.107分钟
每日圈数 14.983224 14.983308
详细信息
固有亮度:
5
最大亮度:
2.5
卫星平台:
Starlink v1.5
覆盖范围:
全球
运营商:
太空探索技术公司
运营商所在国:
美国
制造商(研发单位):
太空探索技术公司
制造商所在国:
美国
使用方式:
暂无
卫星简介
星链(Starlink)计划是由太空探索技术公司(SpaceX)提出的一个巨型低轨卫星互联网星座项目,计划在2019年至2024年间在太空搭建由约1.2万颗卫星组成的“星链”网络,其中1584颗将部署在地球上空550千米处的近地轨道,并从2020年开始工作。该卫星仍在工作。
2D轨道图
3D轨道图
轨道高度分析图
轨道倾角分析图
轨道综合分析图
查看轨道综合分析图
交会数据列表
事件ID 空间交会对象 最接近时刻(TCA) 交会距离 交会风险概率(CRP) 交会风险指数(CRI) 操作
CDM_260902-060605-678006-174025
OBJECT F (61740)
2026-09-02T
06:06:30+0000
1.150 km
极远距离
1.692893E-5 中风险 0.6
CDM_260830-080605-678006-443622
2026-08-30T
08:06:36+0000
1.205 km
极远距离
1.082025E-5 中风险 0.56
CDM_260830-054205-678006-443622
2026-08-30T
05:42:25+0000
2.824 km
极远距离
1.160636E-6 低风险 0.36